Weather History for KBFW - July, 2012

Change the Weather History Date:

Monday, July 2, 2012

  Actual Average (KDLH) Record (KDLH)
Temperature  
Mean Temperature 68 °F 64 °F  
Max Temperature 80 °F 75 °F 90 °F (1937)
Min Temperature 57 °F 54 °F 42 °F (1971)
Degree Days  
Heating Degree Days 0 3  
Month to date heating degree days 6  
Since 1 June heating degree days 185  
Since 1 July heating degree days 6  
Cooling Degree Days 4 2  
Month to date cooling degree days 4  
Year to date cooling degree days 38  
Since 1 June cooling degree days 34  
Growing Degree Days 18 (Base 50)    
Moisture  
Dew Point 56 °F    
Average Humidity 64    
Maximum Humidity 88    
Minimum Humidity 42    
Precipitation  
Precipitation 0.81 in 0.15 in 1.98 in (1979)
Month to date precipitation 0.30  
Year to date precipitation 13.45  
Snow  
Snow 0.00 in 0.00 in T in (1955)
Month to date snowfall 0.0  
Since 1 June snowfall 0.0  
Since 1 July snowfall 0.0  
Snow Depth -    
Sea Level Pressure  
Sea Level Pressure 29.86 in    
Wind  
Wind Speed 3 mph (ENE)    
Max Wind Speed 14 mph    
Max Gust Speed 18 mph    
Visibility 10 miles    
Events Rain , Thunderstorm    
T = Trace of Precipitation, MM = Missing Value Source: NWS Daily Summary

Daily Weather History Graph

Daily Weather History Graph

Search for Another Location

Airport or City:

Trip Planner

Search our weather history database for the weather conditions in past years. The results will help you decide how hot, cold, wet, or windy it might be!

Date:

Astronomy

Jul. 02, 2012 Rise Set
Actual Time 5:14 AM CDT 9:04 PM CDT
Civil Twilight 4:34 AM CDT 9:44 PM CDT
Nautical Twilight 3:40 AM CDT 10:38 PM CDT
Astronomical Twilight 2:19 AM CDT 11:58 PM CDT
Moon 8:05 PM CDT 4:03 AM CDT
Length of Visible Light 17h 09m
Length of Day
15h 50m
Waxing Gibbous, 98% of the Moon is Illuminated
Jul 2
Waxing Gibbous
Jul 3
Full
Jul 10
Last Quarter
Jul 18
New
Jul 26
First Quarter

Hourly Weather History & Observations

Time (CDT) Temp. Heat Index Dew Point Humidity Pressure Visibility Wind Dir Wind Speed Gust Speed Precip Events Conditions
12:14 AM 62.6 °F - 53.6 °F 72% 29.92 in 10.0 mi Calm Calm - N/A   Clear
12:34 AM 62.6 °F - 53.6 °F 72% 29.92 in 10.0 mi Calm Calm - N/A   Clear
12:54 AM 60.8 °F - 51.8 °F 72% 29.92 in 10.0 mi Calm Calm - N/A   Clear
1:14 AM 60.8 °F - 51.8 °F 72% 29.92 in 10.0 mi Calm Calm - N/A   Clear
1:34 AM 60.8 °F - 51.8 °F 72% 29.92 in 10.0 mi Calm Calm - N/A   Clear
1:54 AM 60.8 °F - 51.8 °F 72% 29.92 in 10.0 mi Calm Calm - N/A   Clear
2:14 AM 59.0 °F - 51.8 °F 77% 29.91 in 10.0 mi Calm Calm - N/A   Clear
2:34 AM 57.2 °F - 51.8 °F 82% 29.91 in 10.0 mi Calm Calm - N/A   Clear
2:54 AM 57.2 °F - 53.6 °F 88% 29.91 in 10.0 mi Calm Calm - N/A   Clear
3:14 AM 57.2 °F - 51.8 °F 82% 29.91 in 10.0 mi Calm Calm - N/A   Clear
3:34 AM 57.2 °F - 51.8 °F 82% 29.92 in 10.0 mi Calm Calm - N/A   Clear
3:54 AM 57.2 °F - 53.6 °F 88% 29.92 in 10.0 mi Calm Calm - N/A   Scattered Clouds
4:14 AM 57.2 °F - 53.6 °F 88% 29.91 in 10.0 mi Calm Calm - N/A   Scattered Clouds
4:34 AM 57.2 °F - 53.6 °F 88% 29.91 in 10.0 mi Calm Calm - N/A   Clear
4:54 AM 57.2 °F - 53.6 °F 88% 29.91 in 10.0 mi Calm Calm - N/A   Clear
5:14 AM 59.0 °F - 53.6 °F 82% 29.91 in 10.0 mi NNE 3.5 mph - N/A   Clear
5:34 AM 60.8 °F - 53.6 °F 77% 29.91 in 10.0 mi NNE 3.5 mph - N/A   Clear
5:54 AM 62.6 °F - 53.6 °F 72% 29.91 in 10.0 mi NNE 3.5 mph - N/A   Clear
6:14 AM 64.4 °F - 53.6 °F 68% 29.92 in 10.0 mi Calm Calm - N/A   Scattered Clouds
6:34 AM 64.4 °F - 55.4 °F 73% 29.92 in 10.0 mi Calm Calm - N/A   Clear
6:54 AM 64.4 °F - 53.6 °F 68% 29.91 in 10.0 mi Calm Calm - N/A   Clear
7:14 AM 66.2 °F - 53.6 °F 64% 29.91 in 10.0 mi Calm Calm - N/A   Clear
7:34 AM 69.8 °F - 53.6 °F 56% 29.90 in 10.0 mi ENE 4.6 mph - N/A   Clear
7:54 AM 69.8 °F - 51.8 °F 53% 29.90 in 10.0 mi ENE 6.9 mph - N/A   Clear
8:15 AM 69.8 °F - 51.8 °F 53% 29.90 in 10.0 mi East 8.1 mph - N/A   Clear
8:34 AM 71.6 °F - 53.6 °F 53% 29.90 in 10.0 mi NE 4.6 mph - N/A   Clear
8:55 AM 73.4 °F - 55.4 °F 53% 29.90 in 10.0 mi East 5.8 mph - N/A   Clear
9:14 AM 75.2 °F - 55.4 °F 50% 29.90 in 10.0 mi East 4.6 mph - N/A   Clear
9:35 AM 75.2 °F - 55.4 °F 50% 29.91 in 10.0 mi East 5.8 mph - N/A   Clear
9:54 AM 75.2 °F - 55.4 °F 50% 29.90 in 10.0 mi East 5.8 mph - N/A   Clear
10:19 AM 77.0 °F - 55.4 °F 47% 29.90 in 10.0 mi East 8.1 mph - N/A   Clear
10:36 AM 77.0 °F - 55.4 °F 47% 29.90 in 10.0 mi East 10.4 mph - N/A   Clear
10:56 AM 77.0 °F - 55.4 °F 47% 29.89 in 10.0 mi East 6.9 mph - N/A   Clear
11:14 AM 78.8 °F - 57.2 °F 47% 29.90 in 10.0 mi East 6.9 mph - N/A   Clear
11:34 AM 78.8 °F - 57.2 °F 47% 29.90 in 10.0 mi East 8.1 mph - N/A   Clear
11:54 AM 77.0 °F - 57.2 °F 50% 29.89 in 10.0 mi East 9.2 mph - N/A   Clear
12:14 PM 78.8 °F - 57.2 °F 47% 29.88 in 10.0 mi ENE 6.9 mph - N/A   Clear
12:34 PM 78.8 °F - 57.2 °F 47% 29.88 in 10.0 mi ENE 9.2 mph - N/A   Clear
12:55 PM 78.8 °F - 57.2 °F 47% 29.88 in 10.0 mi East 10.4 mph - N/A   Clear
1:14 PM 78.8 °F - 57.2 °F 47% 29.88 in 10.0 mi ENE 9.2 mph - N/A   Clear
1:35 PM 77.0 °F - 57.2 °F 50% 29.88 in 10.0 mi ENE 9.2 mph - N/A   Clear
1:55 PM 77.0 °F - 57.2 °F 50% 29.87 in 10.0 mi East 10.4 mph - N/A   Clear
2:14 PM 78.8 °F - 57.2 °F 47% 29.86 in 10.0 mi ENE 10.4 mph - N/A   Clear
2:34 PM 78.8 °F - 57.2 °F 47% 29.86 in 10.0 mi East 8.1 mph - N/A   Clear
2:55 PM 78.8 °F - 57.2 °F 47% 29.85 in 10.0 mi East 8.1 mph - N/A   Clear
3:14 PM 80.6 °F 80.8 °F 57.2 °F 45% 29.85 in 10.0 mi East 8.1 mph - N/A   Clear
3:34 PM 80.6 °F 80.8 °F 57.2 °F 45% 29.83 in 10.0 mi East 10.4 mph - N/A   Clear
3:54 PM 78.8 °F - 55.4 °F 44% 29.83 in 10.0 mi ENE 10.4 mph - N/A   Clear
4:15 PM 80.6 °F 80.5 °F 55.4 °F 42% 29.83 in 10.0 mi ENE 8.1 mph - N/A   Clear
4:34 PM 78.8 °F - 55.4 °F 44% 29.83 in 10.0 mi ENE 9.2 mph - N/A   Clear
4:54 PM 78.8 °F - 55.4 °F 44% 29.83 in 10.0 mi East 6.9 mph - N/A   Clear
5:14 PM 78.8 °F - 55.4 °F 44% 29.82 in 10.0 mi East 5.8 mph - N/A   Clear
5:34 PM 77.0 °F - 55.4 °F 47% 29.82 in 10.0 mi NE 4.6 mph - N/A   Clear
5:54 PM 75.2 °F - 55.4 °F 50% 29.81 in 10.0 mi East 4.6 mph - N/A   Clear
6:14 PM 73.4 °F - 57.2 °F 57% 29.81 in 7.0 mi ESE 4.6 mph - N/A   Scattered Clouds
6:34 PM 69.8 °F - 59.0 °F 68% 29.79 in 10.0 mi NE 4.6 mph - 0.03 in Rain Light Rain
6:54 PM 66.2 °F - 60.8 °F 83% 29.80 in 7.0 mi North 3.5 mph - 0.01 in Rain , Thunderstorm Light Thunderstorms and Rain
7:18 PM 66.2 °F - 60.8 °F 83% 29.75 in 10.0 mi ENE 5.8 mph - 0.01 in Rain , Thunderstorm Light Thunderstorms and Rain
7:35 PM 66.2 °F - 59.0 °F 78% 29.76 in 10.0 mi ENE 4.6 mph - 0.01 in Thunderstorm Thunderstorm
7:55 PM 66.2 °F - 59.0 °F 78% 29.73 in 10.0 mi NE 4.6 mph - N/A Thunderstorm Scattered Clouds
8:16 PM 68.0 °F - 59.0 °F 73% 29.77 in 10.0 mi Calm Calm - N/A Thunderstorm Thunderstorm
8:54 PM 68.0 °F - 60.8 °F 78% 29.75 in 10.0 mi Calm Calm - N/A Thunderstorm Clear
9:15 PM 66.2 °F - 60.8 °F 83% 29.74 in 10.0 mi Calm Calm - N/A Rain Light Rain
9:34 PM 66.2 °F - 60.8 °F 83% 29.74 in 10.0 mi NE 3.5 mph - N/A   Clear
9:54 PM 66.2 °F - 60.8 °F 83% 29.83 in 2.5 mi SW 6.9 mph 18.4 mph 0.22 in Rain , Thunderstorm Heavy Thunderstorms and Rain
10:15 PM 66.2 °F - 60.8 °F 83% 29.80 in 7.0 mi WSW 4.6 mph - 0.43 in Rain , Thunderstorm Thunderstorms and Rain
10:34 PM 66.2 °F - 60.8 °F 83% 29.79 in 10.0 mi WSW 5.8 mph - 0.49 in Rain , Thunderstorm Rain
10:54 PM 64.4 °F - 60.8 °F 88% 29.79 in 10.0 mi WSW 11.5 mph 17.3 mph 0.01 in Rain , Thunderstorm Light Thunderstorms and Rain
11:34 PM 64.4 °F - 60.8 °F 88% 29.74 in 10.0 mi West 3.5 mph - 0.06 in Thunderstorm Unknown
11:54 PM 64.4 °F - 60.8 °F 88% 29.74 in 10.0 mi SW 13.8 mph 17.3 mph N/A Rain , Thunderstorm Light Thunderstorms and Rain